Date String (YYYY-MM-DD hh:mm:ss) UTC,Instrument flags,absolute air pressure of the measurement (hPa),sample flow rate (lpm),inlet stack bypass flow (lpm),air temperature of the measurement (°C),ambient temperature measured by the external sensor (°C),aerosol sample conditioner tube jacket temperature (°C),OPC LED temperature (°C),internal box temperature (°C),relative humidity of the measurement (%),span deviation,mass concentration of particles derived from Lorenz-Mie calculation of OPC scattering (μg/m³),mass concentration of particles derived from Lorenz-Mie calculation of OPC scattering (μg/m³),mass concentration of particles derived from Lorenz-Mie calculation of OPC scattering (μg/m³)
DateTimeUTC,F1_M11,P_M11,Q1_M11,Q2_M11,T1_M11,T2_M11,T3_M11,T4_M11,T5_M11,U1_M11,ZSPAN_M11,X2_M11,X0_M11,X1_M11
2023-07-19 18:00:00,SystemResetWarning,0836.3,5.00,000.00,029.3,025.8,000.0,037.5,030.7,29.4,0000.0,0005.56,0015.78,0004.41
2023-07-19 18:01:00,SystemResetWarning,0836.3,5.00,000.00,029.3,024.9,000.0,037.4,030.5,29.7,0000.0,0005.59,0016.04,0004.39
2023-07-19 18:02:00,SystemResetWarning,0836.3,5.00,000.00,029.2,025.0,000.0,037.4,030.3,30.4,0000.0,0005.55,0015.57,0004.37
2023-07-19 18:03:00,SystemResetWarning,0836.3,5.01,000.00,029.1,025.4,000.0,037.4,030.2,31.0,0000.0,0005.49,0015.80,0004.34
2023-07-19 18:04:00,SystemResetWarning,0836.3,5.01,000.00,029.0,025.8,000.0,037.5,030.3,31.6,0000.0,0005.47,0015.58,0004.34
2023-07-19 18:05:00,SystemResetWarning,0836.4,5.00,000.00,029.1,026.3,000.0,037.5,030.4,31.9,0000.0,0005.38,0015.51,0004.32
2023-07-19 18:06:00,SystemResetWarning,0836.4,5.00,000.00,029.1,026.7,000.0,037.5,030.5,32.0,0000.0,0005.31,0014.72,0004.27
2023-07-19 18:07:00,SystemResetWarning,0836.4,5.00,000.00,029.1,027.0,000.0,037.5,030.6,32.5,0000.0,0005.26,0014.22,0004.24
2023-07-19 18:08:00,SystemResetWarning,0836.4,5.00,000.00,029.1,027.3,000.0,037.5,030.7,31.9,0000.0,0005.19,0013.91,0004.23
2023-07-19 18:09:00,SystemResetWarning,0836.5,4.99,000.00,029.2,027.6,000.0,037.5,030.8,32.4,0000.0,0005.18,0013.71,0004.21
2023-07-19 18:10:00,SystemResetWarning,0836.5,4.99,000.00,029.2,027.8,000.0,037.6,030.8,32.3,0000.0,0005.21,0013.61,0004.22
2023-07-19 18:11:00,SystemResetWarning,0836.5,4.99,000.00,029.3,027.7,000.0,037.6,030.9,32.5,0000.0,0005.14,0012.52,0004.22
2023-07-19 18:12:00,SystemResetWarning,0836.5,5.00,000.00,029.2,026.2,000.0,037.4,030.7,33.3,0000.0,0005.13,0012.11,0004.24
2023-07-19 18:13:00,SystemResetWarning,0836.4,5.00,000.00,029.2,025.0,000.0,037.3,030.5,33.3,0000.0,0005.16,0012.47,0004.26
2023-07-19 18:14:00,SystemResetWarning,0836.5,5.01,000.00,029.1,024.9,000.0,037.3,030.3,32.5,0000.0,0005.18,0011.69,0004.28
2023-07-19 18:15:00,SystemResetWarning,0836.4,5.02,000.00,029.0,025.3,000.0,037.3,030.2,32.0,0000.0,0005.20,0012.20,0004.30
2023-07-19 18:16:00,SystemResetWarning,0836.5,4.99,000.00,029.0,025.8,000.0,037.4,030.3,31.9,0000.0,0005.22,0012.66,0004.33
2023-07-19 18:17:00,SystemResetWarning,0836.5,4.99,000.00,029.0,026.2,000.0,037.4,030.4,32.5,0000.0,0005.25,0012.62,0004.37
2023-07-19 18:18:00,SystemResetWarning,0836.5,5.01,000.00,029.0,026.6,000.0,037.4,030.5,33.1,0000.0,0005.26,0013.24,0004.40
2023-07-19 18:19:00,SystemResetWarning,0836.6,5.01,000.00,029.0,027.0,000.0,037.4,030.6,33.5,0000.0,0005.30,0013.35,0004.44
2023-07-19 18:20:00,SystemResetWarning,0836.6,5.00,000.00,029.0,027.3,000.0,037.4,030.6,33.7,0000.0,0005.38,0013.99,0004.49
2023-07-19 18:21:00,SystemResetWarning,0836.7,4.98,000.00,029.1,027.5,000.0,037.5,030.7,33.9,0000.0,0005.39,0013.80,0004.52
2023-07-19 18:22:00,SystemResetWarning,0836.7,5.01,000.00,029.1,027.7,000.0,037.5,030.8,32.5,0000.0,0005.46,0014.02,0004.56
2023-07-19 18:23:00,SystemResetWarning,0836.6,5.01,000.00,029.2,027.9,000.0,037.5,030.9,32.0,0000.0,0005.55,0014.67,0004.58
2023-07-19 18:24:00,SystemResetWarning,0836.6,4.98,000.00,029.2,027.6,000.0,037.5,030.9,32.2,0000.0,0005.65,0015.12,0004.61
2023-07-19 18:25:00,SystemResetWarning,0836.6,4.99,000.00,029.2,026.0,000.0,037.4,030.6,31.6,0000.0,0005.76,0015.72,0004.66
2023-07-19 18:26:00,SystemResetWarning,0836.7,5.02,000.00,029.1,025.0,000.0,037.3,030.4,32.8,0000.0,0005.84,0015.52,0004.70
2023-07-19 18:27:00,SystemResetWarning,0836.6,5.01,000.00,029.0,025.0,000.0,037.2,030.3,33.6,0000.0,0005.89,0015.22,0004.74
2023-07-19 18:28:00,SystemResetWarning,0836.5,4.99,000.00,028.9,025.4,000.0,037.3,030.2,32.3,0000.0,0005.91,0014.89,0004.76
2023-07-19 18:29:00,SystemResetWarning,0836.6,5.00,000.00,028.9,025.8,000.0,037.3,030.3,32.0,0000.0,0005.94,0014.31,0004.78
2023-07-19 18:30:00,SystemResetWarning,0836.6,5.00,000.00,028.9,026.3,000.0,037.3,030.4,32.0,0000.0,0005.95,0014.25,0004.77
2023-07-19 18:31:00,SystemResetWarning,0836.6,5.01,000.00,028.9,026.7,000.0,037.4,030.5,31.9,0000.0,0005.88,0014.36,0004.75
2023-07-19 18:32:00,SystemResetWarning,0836.6,4.99,000.00,029.0,027.0,000.0,037.4,030.6,31.8,0000.0,0005.91,0014.67,0004.73
2023-07-19 18:33:00,SystemResetWarning,0836.6,4.99,000.00,029.0,027.3,000.0,037.4,030.6,32.8,0000.0,0005.88,0014.75,0004.71
2023-07-19 18:34:00,SystemResetWarning,0836.5,5.00,000.00,029.0,027.6,000.0,037.4,030.7,32.0,0000.0,0005.85,0015.07,0004.71
2023-07-19 18:35:00,SystemResetWarning,0836.5,5.01,000.00,029.1,027.8,000.0,037.4,030.8,32.5,0000.0,0005.76,0015.89,0004.69
2023-07-19 18:36:00,SystemResetWarning,0836.5,5.00,000.00,029.1,027.8,000.0,037.4,030.8,32.3,0000.0,0005.64,0015.15,0004.66
2023-07-19 18:37:00,SystemResetWarning,0836.5,4.99,000.00,029.1,026.4,000.0,037.3,030.7,31.4,0000.0,0005.54,0015.10,0004.62
2023-07-19 18:38:00,SystemResetWarning,0836.5,5.00,000.00,029.1,025.1,000.0,037.2,030.4,32.7,0000.0,0005.47,0014.67,0004.58
2023-07-19 18:39:00,SystemResetWarning,0836.4,5.00,000.00,029.0,025.0,000.0,037.2,030.3,32.7,0000.0,0005.44,0015.73,0004.55
2023-07-19 18:40:00,SystemResetWarning,0836.4,5.01,000.00,028.9,025.3,000.0,037.2,030.2,33.1,0000.0,0005.42,0016.53,0004.52
2023-07-19 18:41:00,SystemResetWarning,0836.4,5.01,000.00,028.9,025.7,000.0,037.3,030.3,32.7,0000.0,0005.36,0016.68,0004.50
2023-07-19 18:42:00,SystemResetWarning,0836.4,5.00,000.00,028.9,026.2,000.0,037.3,030.3,31.8,0000.0,0005.35,0016.07,0004.50
2023-07-19 18:43:00,SystemResetWarning,0836.4,5.00,000.00,028.9,026.6,000.0,037.3,030.4,32.0,0000.0,0005.31,0015.85,0004.49
2023-07-19 18:44:00,SystemResetWarning,0836.5,5.00,000.00,028.9,027.0,000.0,037.3,030.5,31.7,0000.0,0005.28,0015.69,0004.47
2023-07-19 18:45:00,SystemResetWarning,0836.5,5.00,000.00,029.0,027.3,000.0,037.4,030.6,32.2,0000.0,0005.24,0015.07,0004.45
2023-07-19 18:46:00,SystemResetWarning,0836.5,5.00,000.00,029.0,027.5,000.0,037.4,030.7,32.4,0000.0,0005.28,0014.36,0004.45
2023-07-19 18:47:00,SystemResetWarning,0836.4,4.99,000.00,029.1,027.8,000.0,037.4,030.8,32.1,0000.0,0005.33,0014.04,0004.43
2023-07-19 18:48:00,SystemResetWarning,0836.5,5.00,000.00,029.1,028.0,000.0,037.4,030.9,31.4,0000.0,0005.34,0013.74,0004.41
2023-07-19 18:49:00,SystemResetWarning,0836.4,5.00,000.00,029.1,027.7,000.0,037.4,030.9,31.8,0000.0,0005.31,0014.07,0004.41
2023-07-19 18:50:00,SystemResetWarning,0836.4,5.00,000.00,029.1,026.1,000.0,037.3,030.7,32.0,0000.0,0005.30,0013.42,0004.41
2023-07-19 18:51:00,SystemResetWarning,0836.4,5.00,000.00,029.1,025.0,000.0,037.2,030.4,32.4,0000.0,0005.33,0013.10,0004.45
2023-07-19 18:52:00,SystemResetWarning,0836.4,5.01,000.00,029.0,025.0,000.0,037.2,030.3,32.7,0000.0,0005.38,0013.37,0004.48
2023-07-19 18:53:00,SystemResetWarning,0836.3,5.01,000.00,028.9,025.4,000.0,037.2,030.2,33.2,0000.0,0005.39,0013.83,0004.50
2023-07-19 18:54:00,SystemResetWarning,0836.3,4.99,000.00,028.9,025.8,000.0,037.3,030.3,33.6,0000.0,0005.38,0013.63,0004.51
2023-07-19 18:55:00,SystemResetWarning,0836.3,4.99,000.00,028.9,026.3,000.0,037.3,030.4,33.3,0000.0,0005.36,0013.85,0004.52
2023-07-19 18:56:00,SystemResetWarning,0836.4,5.00,000.00,028.9,026.7,000.0,037.3,030.5,32.9,0000.0,0005.35,0014.20,0004.52
2023-07-19 18:57:00,SystemResetWarning,0836.3,5.00,000.00,028.9,027.0,000.0,037.3,030.6,32.5,0000.0,0005.33,0014.20,0004.52
2023-07-19 18:58:00,SystemResetWarning,0836.4,5.01,000.00,029.0,027.4,000.0,037.3,030.7,32.1,0000.0,0005.26,0013.88,0004.51
2023-07-19 18:59:00,SystemResetWarning,0836.4,5.00,000.00,029.0,027.6,000.0,037.4,030.7,31.9,0000.0,0005.22,0013.67,0004.49
